Regional Weather Roundup
Issued by NWS

Home | Current Version | Previous Version | Graphics & Text | Print | Product List | Glossary On
Versions: 1 2 3 4 5 6 7 8 9 10 11 12 13 14 15 16 17 18 19 20 21 22 23 24 25 26 27 28 29 30 31 32 33 34 35 36 37 38 39 40 41 42 43 44 45 46 47 48 49 50
000
ASUS43 KTOP 281759
RWRKS

WEATHER ROUNDUP FOR KANSAS
NATIONAL WEATHER SERVICE GOODLAND KS
100 PM CDT SAT MAR 28 2015

NOTE:  "FAIR" INDICATES FEW OR NO CLOUDS BELOW 12,000 FEET WITH NO
SIGNIFICANT WEATHER AND/OR OBSTRUCTIONS TO VISIBILITY.

KSZ001>006-013>018-027>032-041>047-281900-
NORTHWEST KANSAS

CITY           SKY/WX    TMP DP  RH WIND       PRES   REMARKS
GOODLAND       SUNNY     73  29  19 MISG      30.01F
6HR MIN TEMP:  40; 6HR MAX TEMP:  73;

HAYS           SUNNY     63  37  39 E8        30.03F
HILL CITY      SUNNY     63  36  36 E10       30.03F
6HR MIN TEMP:  31; 6HR MAX TEMP:  63;

RUSSELL        SUNNY     63  37  38 E12       30.01F
6HR MIN TEMP:  31; 6HR MAX TEMP:  63;

$$

KSZ061>065-074>080-084>089-281900-
SOUTHWEST KANSAS

CITY           SKY/WX    TMP DP  RH WIND       PRES   REMARKS
DODGE CITY     SUNNY     72  38  29 E10       30.02F
6HR MIN TEMP:  44; 6HR MAX TEMP:  72;

ELKHART          N/A     77  35  21 W7          N/A
GARDEN CITY    SUNNY     72  37  28 MISG      30.01F
6HR MIN TEMP:  37; 6HR MAX TEMP:  72;

GREAT BEND     SUNNY     66  39  37 E12       30.02F
LIBERAL        SUNNY     73  39  29 NE7       30.04S
$$

KSZ066>073-081>083-090>101-281900-
SOUTHEAST KANSAS

CITY           SKY/WX    TMP DP  RH WIND       PRES   REMARKS
CHANUTE        SUNNY     57  38  48 SE9       30.10S
6HR MIN TEMP:  40; 6HR MAX TEMP:  57;

COFFEYVILLE    SUNNY     60  40  47 MISG      30.07F
6HR MIN TEMP:  41; 6HR MAX TEMP:  60; 6HR PCP: TRACE;

HUTCHINSON     SUNNY     65  39  38 E9        30.03F
6HR MIN TEMP:  35; 6HR MAX TEMP:  66;

MEDICINE LODGE   N/A     71  41  33 NE6       30.00F
NEWTON         SUNNY     61  37  41 E10       30.07S
PARSONS        SUNNY     59  40  49 SE10      30.09F
6HR MIN TEMP:  42; 6HR MAX TEMP:  60;

WICHITA INTL   SUNNY     63  39  41 E7        30.04S
6HR MIN TEMP:  38; 6HR MAX TEMP:  64;

WICHITA JABRA  SUNNY     62  40  44 VRB7      30.04S
6HR MIN TEMP:  39; 6HR MAX TEMP:  63;

WINFIELD       SUNNY     65  43  44 CALM      30.04S
6HR MIN TEMP:  41; 6HR MAX TEMP:  65;

$$

KSZ007>012-019>026-033>040-048>060-102>105-281900-
NORTHEAST KANSAS

CITY           SKY/WX    TMP DP  RH WIND       PRES   REMARKS
CONCORDIA      SUNNY     56  33  42 E12       30.06F
6HR MIN TEMP:  29; 6HR MAX TEMP:  56;

EMPORIA        SUNNY     55  33  43 SE12      30.08S
6HR MIN TEMP:  37; 6HR MAX TEMP:  56;

LAWRENCE       SUNNY     51  29  42 E17G23    30.15F
6HR MIN TEMP:  36; 6HR MAX TEMP:  51;

MANHATTAN      SUNNY     56  33  42 E9        30.09F
6HR MIN TEMP:  36; 6HR MAX TEMP:  56;

OLATHE IND     SUNNY     48  30  49 SE14G23   30.16S
6HR MIN TEMP:  37; 6HR MAX TEMP:  48;

OLATHE EXE     PTSUNNY   47  30  51 E16G24    30.15F
6HR MIN TEMP:  37; 6HR MAX TEMP:  47;

SALINA         SUNNY     59  36  42 E9G18     30.06S
6HR MIN TEMP:  38; 6HR MAX TEMP:  60;

TOPEKA BILLARD SUNNY     52  30  43 SE14G21   30.13F
6HR MIN TEMP:  38; 6HR MAX TEMP:  53;

TOPEKA FORBES  SUNNY     54  31  41 SE16      30.12S
6HR MIN TEMP:  39; 6HR MAX TEMP:  54;

$$


USA.gov is the U.S. government's official web portal to all federal, state and local government web resources and services.